OPS 4682 DEB, 38448

Orbit data source: Space-Track

OPS 4682 DEB, 38448 is space debris in LEO originally from a launch on Sat, 03 Apr 1965 UTC launched from the Air Force Western Test Range (AFWTR). Debris objects in space refer to the collection of defunct objects orbiting the Earth. Examples of debris include non-operational satellites, rocket bodies, and fragments generated from explosions, collisions, or faulty payload assembly.

Loading next visibility...
Identifier
38448, 1965-027FD
Orbit
LEO
Country
Flag of USUS
Related business
Manufacturer
Unknown
Mission
Spacecraft
Bus & Motor
Unknown
Mass
Unknown
Launch date (UTC)
1965-04-03 (61 years ago)
Launch vehicle
Unknown
Launch site
Air Force Western Test Range (AFWTR)
Object type
Payload
Rocket body
Debris
Shape & HBR
Unknown shape, 0.1 m
Radar Cross Section
Small (<0.1 m²)

Expand to show TLE details & history
Last TLE update: 1 day ago

TLE from 1 day ago
0 OPS 4682 DEB
1 38448U 65027FD  26071.79271921  .00000978  00000-0  32054-2 0  9991
2 38448  90.2440   4.5592 0029986 132.2310 228.1364 13.00284404541832
Epoch: 2026-03-12T19:01Z
TLE epoch observation values (Epoch: 2026-03-12T19:01:30.939Z)
Latitude
-0.00002°
Longitude
-91.25723°
Altitude
1,279.185 km
Speed
7.209 km/s
True Right ascension
00h 18m 14s
True Declination
0° 00' 00"
Sunlit
Object was in daylight at epoch
Visualization orbit readout
Latitude
Unknown
Longitude
Unknown
Altitude
Unknown
Speed
Unknown
Apparent Right ascension
Unknown
Apparent Declination
Unknown
Sunlit
N/A
Visualization observer readout
Local Sidereal Time
07:31:10
Azimuth
Unknown
Elevation
Unknown
Doppler factor
Unknown
Orbital elements
Apogee altitude
1,280.997 km
Perigee altitude
1,235.201 km
Semi-major axis
7,636.236 km
Eccentricity
0.003
Inclination
90.244°
RAAN
4.5592°
Arg. of periapsis
132.231°
True anomaly
227.88114°
Mean anomaly
228.1364°
Eccentric anomaly
228.0087°
Mean motion
3.25255 °/min
Orbital period
110.68 mins
BSTAR
0.0032054
Loading maneuver chart data...
Computing Atmospheric mass density...
Loading historical data...
Loading historical data...
Loading historical data...
Loading historical data...
Loading historical data...
Loading historical data...
Loading historical data...

Documentation

Showing up to 5 results
|